Погода в Выксе

Погода в Выксе : погода сейчас, прогноз погоды и архив. Всё, что Вы хотите узнать о погоде в Выксе!

Хотите узнать прогноз погоды в Выксе? Тогда Вам сюда: Погода в Выксе

Поиск расширенной информации на нашем сайте:

Другие новости

Новости СМИ2

Главная страница сайта

Новости сайта

03.07.2017

Напоминаем, что на нашем специализированном сайте Метеоцентр.Азия вы можете получить высокодетализированные автоматические прогнозы погоды по пунктам России, СНГ и мира в авиационном формате (включающие направление и скорость ветра, видимость, явления погоды, количество и форму облачности, нижнюю и верхнюю границу облачности).


Погода в Выксе - сегодня

Время (UTC), дата Ветер
(°,м/с) 
Видим.   Явления Облачность Т
(°С)
Тd
(°С)
f(%) Тe
(°С)
Pmin
(гПа)
dP
(гПа)
Po
(мм)
O2
(г/м3)
Тmin Tmax R s Состояние
почвы
06 14.04.18 010 (С) 2-4{04}  10 км    ясно 
+4.7 -3.7 54 +4  1032.8  764  303           
18 14.04.18 170 (Ю) 1-2{03}  10 км    ясно 
+3.4 -4.8 55 +4  1029.5  -0.6  761  304           
21 14.04.18 200 (Ю) 1-1{02}  10 км    ясно 
-1.5 -4.4 81 -1  1029.5  -0.3  761  309           
09 15.04.18 270 (З) 5-8{09}  10 км    ясно 
+13.6 -3.6 30 +13  1024.5  -0.7  758  291           
18 15.04.18 250 (З) 2-3{05}  10 км    ясно 
+9.5 -3.8 39 +10  1020.9  755  295           
21 15.04.18 160 (Ю) 1-1{03}  10 км    ясно 
+2.1 -2.9 69 +3  1020.9  -0.4  755  302           
15 16.04.18 320 (СЗ) 3-4{08}  10 км    8/0 средняя, верхняя 
[Ac trans|Cs]
+17 -6.7 19 +17  1017.7  -0.3  753  286    +18.4       
18 16.04.18 180 (Ю) 1-1{04}  10 км    ясно 
+11 -6 30 +12  1017.6  -0.4  753  292           
03 17.04.18 170 (Ю) 1-2{02}  10 км    10/0 средняя 
[Ac As]
+6.1 -1.1 60 +7  1016.7  0.2  752  296  +4.8         
15 17.04.18 250 (З) 2-3{05}  10 км    9/6 600 м верхняя 
[Cu hum|Cs]
+19 +1.9 32 +20  1014.7  -0.5  751  283    +20.1       
03 18.04.18 200 (Ю) 2-3{03}  10 км    10/10 420 м 
[Sc]
+9.2 +4.5 72 +9  1013.5  -0.8  750  292  +5.6         
15 18.04.18 120 (ЮВ) 2-5{05}  10 км    10/10 420 м 
[Sc]
+12.5 +8.9 79 +13  1008.1  -1  746  286    +13.1     
03 19.04.18 020 (С) 5-8{09}  4000 м  слаб. дождь  10/10 210 м 
[Sc]
+6.4 +5.5 94 +5  999.8  -2.4  740  290  +6.3    15     
15 19.04.18 020 (С) 4-6{09}  4000 м  слаб. дождь  10/10 210 м 
[Sc]
+6.2 +6 99 +5  1002.8  1.6  742  291    +6.4     
03 20.04.18 010 (С) 4-7{07}  10 км    3/0 верхняя 
[Ci fib]
+3 +0.6 84 +1  1008.2  746  297  +2.9       
18 20.04.18 030 (СВ) 2-3{08}  10 км    ясно 
+5.6 -5.5 45 +5  1012.1  0.8  749  296           
21 20.04.18 тихо () -0{03}  10 км    ясно 
+4 -5.5 50 +4  1012.2  749  298           
03 21.04.18 180 (Ю) 2-3{04}  10 км    10/0 средняя 
[As op]
+1.9 -2.8 71 +1  1009.2  -2.4  746  299  -0.1         
15 21.04.18 220 (ЮЗ) 4-8{10}  10 км    8/0 средняя 
[Ac As]
+17.2 +5.9 47 +17  988.7  -6  732  276    +17.2     
03 22.04.18 300 (СЗ) 9-13{16}  10 км  {дождь}  10/10 600 м 
[Sc]
+1.6 -0.9 83 -3  986.4  2.1  730  292  +1.5       
15 22.04.18 340 (С) 6-10{14}  10 км  {снег}  9/9 600 м кучево-дожд. 
[Cb cap]
+1.1 -4.1 68 -2  999.9  2.7  739  297    +1.6  0.0     
03 23.04.18 320 (СЗ) 5-8{08}  10 км    4/0 верхняя 
[Ci fib]
-1.5 -8 61 -5  1005.4  743  302  -2.7    равномерный
мокрый или
старый снег
100% 
15 23.04.18 350 (С) 8-13{16}  10 км    4/0 верхняя 
[Ci sp]
+5.9 -10.3 30 +3  1008.6  0.9  746  295    +6.6       
18 23.04.18 320 (СЗ) 3-3{13}  10 км    ясно 
+1.5 -7.6 51 1010.3  1.5  747  300           
21 23.04.18 310 (СЗ) 3-4{05}  10 км    ясно 
-0.4 -6.1 65 -2  1011.3  0.8  748  302           
Время (UTC), дата Ветер
(°,м/с) 
Видим.   Явления Облачность Т
(°С)
Тd
(°С)
f(%) Тe
(°С)
Pmin
(гПа)
dP
(гПа)
Po
(мм)
O2
(г/м3)
Тmin Tmax R s Состояние
почвы

Для получения пояснительной информации подведите курсор к названию столбца.

ПОГОДА в Выксе - архив

Всё, что Вы хотите узнать о погоде в Выксе - удобно и подробно!

Выберите нужную дату (начиная с 1 января 2015* года) и нажмите кнопку "Найти".
Будут отображены архивные сводки погоды по пункту Выкса, начиная с указанной даты.


Отображать данные в формате CSV (для использования в таблицах Excel)


Внимание! Наш архив погоды предназначен исключительно для личного некоммерческого использования в познавательных целях. Если Вам необходимы официальные справки о состоянии погоды (для производственных, юридических, коммерческих и т.п. целей), обращайтесь в органы Росгидромета.

*Примечание: данная дата относится к архиву по метеостанциям СССР (Россия, СНГ, Балтия).
Архив по метеостанциям Зарубежной Европы и Азии (кроме Китая) хранится 10 дней, по другим регионам земного шара (Китай, Африка, Америка, Австралия, Океания) - 1 день.

Выкса - район местоположения метеостанции


Название, широта, долгота, высота метеостанции:
Выкса 55.3°ш. 42.1°д. 114 м над ур. моря [Российская Федерация]

Дополнительная информация

В oтличие oт бoльшинства пoгoдных сайтoв мы публикуем пoдрoбную метеoинфoрмацию в детальнoм прoфессиoнальнoм фoрмате.

Характеристики температуры и влажнoсти вoздуха измеряются на высoте 2 м в тени вдали oт зданий и деревьев.
Скoрoсть ветра измеряется на высoте 10 м (на урoвне рoста челoвека скoрoсть ветра ниже в 1.5-2 раза). Если метеoстанция нахoдится в гoрoде или в лесу, тo скoрoсть ветра занижена на 2-4 м/с пo сравнению с oткрытым местoм. Скoрoсть ветра над акватoриями крупных рек и oзёр, а также на вершинах хoлмoв на 2-5 м/с выше, чем в oбычных услoвиях.
Атмoсфернoе давление в разных тoчках местнoсти мoжет значительнo oтличаться oт давления на метеoстанции, в зависимoсти oт услoвий рельефа (при пoдъёме на 10 м давление пoнижается примернo на 1 мм рт.ст.).